Weather History for Abilene, TX

Change the Weather History Date:

Wednesday, May 15, 2013

  Actual Average Record
Temperature  
Mean Temperature 77 °F 73 °F  
Max Temperature 89 °F 84 °F 104 °F (1978)
Min Temperature 64 °F 61 °F 42 °F (1973)
Degree Days  
Heating Degree Days 0 0  
Month to date heating degree days 50 13  
Since 1 July heating degree days 2301 2555  
Cooling Degree Days 12 8  
Month to date cooling degree days 51 102  
Year to date cooling degree days 227 235  
Growing Degree Days 26 (Base 50)    
Moisture  
Dew Point 60 °F    
Average Humidity 62    
Maximum Humidity 93    
Minimum Humidity 31    
Precipitation  
Precipitation 0.22 in 0.10 in 1.48 in (1920)
Month to date precipitation 1.39 1.32  
Year to date precipitation 5.61 7.08  
Sea Level Pressure  
Sea Level Pressure 29.84 in    
Wind  
Wind Speed 13 mph (South)    
Max Wind Speed 37 mph    
Max Gust Speed 48 mph    
Visibility 10 miles    
Events Rain , Thunderstorm    
T = Trace of Precipitation, MM = Missing Value Source: NWS Daily Summary

Daily Weather History Graph

Daily Weather History Graph

Search for Another Location

Airport:

Trip Planner

Search our weather history database for the weather conditions in past years. The results will help you decide how hot, cold, wet, or windy it might be!

Date:

Astronomy

May. 15, 2013 Rise Set
Actual Time 6:40 AM CDT 8:30 PM CDT
Civil Twilight 6:13 AM CDT 8:57 PM CDT
Nautical Twilight 5:40 AM CDT 9:30 PM CDT
Astronomical Twilight 5:06 AM CDT 10:04 PM CDT
Moon 11:14 AM CDT (5/15) 12:19 AM CDT (5/15)
Length of Visible Light 14h 43m
Length of Day
13h 49m
Waxing Crescent, 27% of the Moon is Illuminated
May 15
Waxing Crescent
May 17
First Quarter
May 24
Full
May 31
Last Quarter
Jun 8
New

Hourly Weather History & Observations

Time (CDT) Temp. Heat Index Dew Point Humidity Pressure Visibility Wind Dir Wind Speed Gust Speed Precip Events Conditions
12:52 AM 64.9 °F - 62.1 °F 90% 29.96 in 10.0 mi SSE 6.9 mph - N/A   Clear
1:52 AM 64.9 °F - 62.1 °F 90% 29.94 in 8.0 mi SSW 24.2 mph 33.4 mph 0.01 in Rain Light Rain
2:52 AM 64.0 °F - 63.0 °F 96% 29.92 in 10.0 mi SSE 10.4 mph - 0.08 in Rain Light Rain
3:52 AM 64.9 °F - 63.0 °F 93% 29.88 in 10.0 mi South 8.1 mph - 0.01 in   Overcast
4:52 AM 64.9 °F - 63.0 °F 93% 29.89 in 10.0 mi South 11.5 mph - N/A   Mostly Cloudy
5:52 AM 64.0 °F - 62.1 °F 93% 29.88 in 10.0 mi South 9.2 mph - N/A   Clear
6:52 AM 64.0 °F - 61.0 °F 90% 29.88 in 10.0 mi South 9.2 mph - N/A   Clear
7:26 AM 64.4 °F - 60.8 °F 88% 29.95 in 10.0 mi South 10.4 mph - N/A   Mostly Cloudy
7:44 AM 64.4 °F - 60.8 °F 88% 29.95 in 10.0 mi South 12.7 mph - N/A   Scattered Clouds
7:52 AM 64.9 °F - 61.0 °F 87% 29.88 in 10.0 mi South 13.8 mph - N/A   Mostly Cloudy
8:06 AM 66.2 °F - 62.6 °F 88% 29.95 in 10.0 mi South 11.5 mph - N/A   Scattered Clouds
8:52 AM 68.0 °F - 62.1 °F 81% 29.90 in 10.0 mi SSE 12.7 mph - N/A   Partly Cloudy
9:15 AM 69.8 °F - 62.6 °F 78% 29.97 in 10.0 mi South 17.3 mph 24.2 mph N/A   Mostly Cloudy
9:52 AM 69.1 °F - 64.0 °F 84% 29.91 in 10.0 mi South 12.7 mph - N/A   Overcast
9:59 AM 69.8 °F - 64.4 °F 83% 29.96 in 10.0 mi South 15.0 mph 20.7 mph N/A   Overcast
10:52 AM 70.0 °F - 64.0 °F 81% 29.89 in 10.0 mi South 12.7 mph 23.0 mph N/A   Overcast
11:52 AM 73.9 °F - 64.9 °F 73% 29.86 in 10.0 mi South 17.3 mph 24.2 mph N/A   Mostly Cloudy
12:28 PM 77.0 °F - 64.4 °F 65% 29.91 in 10.0 mi South 18.4 mph 26.5 mph N/A   Mostly Cloudy
12:44 PM 78.8 °F - 64.4 °F 61% 29.90 in 10.0 mi South 18.4 mph 26.5 mph N/A   Mostly Cloudy
12:52 PM 78.1 °F - 64.9 °F 64% 29.83 in 10.0 mi South 15.0 mph 23.0 mph N/A   Scattered Clouds
1:52 PM 81.0 °F 82.7 °F 64.9 °F 58% 29.81 in 10.0 mi SSW 12.7 mph - N/A   Partly Cloudy
2:52 PM 82.9 °F 84.4 °F 64.0 °F 53% 29.77 in 10.0 mi South 17.3 mph 24.2 mph N/A   Clear
3:52 PM 87.1 °F 87.8 °F 63.0 °F 44% 29.73 in 10.0 mi SSW 19.6 mph 28.8 mph N/A   Clear
4:52 PM 84.0 °F 84.0 °F 60.1 °F 44% 29.70 in 10.0 mi SSW 12.7 mph 23.0 mph N/A   Clear
5:52 PM 88.0 °F 85.7 °F 53.1 °F 30% 29.67 in 10.0 mi South 13.8 mph 27.6 mph N/A   Clear
6:52 PM 79.0 °F - 52.0 °F 39% 29.71 in 8.0 mi WNW 36.8 mph 48.3 mph 0.00 in Rain Light Rain
6:55 PM 75.2 °F - 51.8 °F 44% 29.79 in 8.0 mi WNW 27.6 mph 48.3 mph 0.00 in Rain , Thunderstorm Light Thunderstorms and Rain
7:04 PM 73.4 °F - 51.8 °F 47% 29.79 in 6.0 mi WNW 21.9 mph 38.0 mph 0.00 in Rain , Thunderstorm Thunderstorms and Rain
7:52 PM 70.0 °F - 57.9 °F 65% 29.75 in 7.0 mi Variable 3.5 mph - 0.11 in Rain , Thunderstorm Light Thunderstorms and Rain
8:14 PM 75.2 °F - 51.8 °F 44% 29.73 in 10.0 mi SSE 12.7 mph 21.9 mph 0.01 in Thunderstorm Thunderstorm
8:34 PM 71.6 °F - 55.4 °F 57% 29.82 in 10.0 mi West 23.0 mph 43.7 mph 0.01 in Rain , Thunderstorm Light Thunderstorms and Rain
8:52 PM 73.0 °F - 55.0 °F 53% 29.75 in 9.0 mi SW 15.0 mph 34.5 mph 0.01 in Rain , Thunderstorm Light Thunderstorms and Rain
9:52 PM 69.1 °F - 59.0 °F 70% 29.71 in 10.0 mi South 12.7 mph - 0.00 in Thunderstorm Thunderstorm
10:00 PM 68.0 °F - 59.0 °F 73% 29.77 in 10.0 mi South 12.7 mph - N/A   Clear
10:52 PM 66.9 °F - 59.0 °F 76% 29.68 in 10.0 mi SSE 6.9 mph - N/A   Clear
11:52 PM 66.0 °F - 57.9 °F 75% 29.65 in 10.0 mi WSW 6.9 mph - N/A   Clear